Tracking 32407 objects as of 5-Dec-2025
HD Live streaming from Space Station
objects crossing your sky now

COSMOS 648

Track COSMOS 648 now!
10-day predictions
COSMOS 648 is classified as:


NORAD ID: 7272
Int'l Code: 1974-024H
Perigee: 1,443.6 km
Apogee: 1,496.5 km
Inclination: 74.0 °
Period: 115.2 minutes
Semi major axis: 7841 km
RCS: 0.7136 m2 (medium)
Launch date: April 23, 1974
Source: Commonwealth of Independent States (former USSR) (CIS)
Launch site: PLESETSK MISSILE AND SPACE COMPLEX (PKMTR)
Your satellite tracking list
Your tracking list is empty




NASA's NSSDC Master Catalog

Two Line Element Set (TLE):
1 07272U 74024H   25339.29455477  .00000018  00000-0  22197-3 0  9993
2 07272  74.0159 189.8801 0033743 258.0992 220.4228 12.50373140356163
Source of the keplerian elements: AFSPC